Terminal Aerodrome Forecast
Issued by NWS State College, PA

Home | Current Version | Previous Version | Text Only | Print | Product List | Glossary On
Versions: 1 2 3 4 5 6 7 8 9 10 11 12 13 14 15 16 17 18 19 20 21 22 23 24 25 26 27 28 29 30 31 32 33 34 35 36 37 38 39 40 41 42 43 44 45 46 47 48 49 50
000
FTUS41 KCTP 230548
TAFIPT
TAF
KIPT 230548Z 2306/2406 VRB03KT P6SM -RA OVC035 WS020/27040KT
      TEMPO 2306/2309 5SM -FZRA BR OVC025
     FM231100 24004KT P6SM OVC050 WS020/27040KT
     FM231500 14005KT P6SM SCT250
     FM240200 15007KT P6SM SCT025 OVC050
     FM240400 16005KT 4SM -RA BR OVC025 WS020/18034KT=

USA.gov is the U.S. government's official web portal to all federal, state and local government web resources and services.